CZ-6A DEB, 55872

Orbit data source: Space-Track

CZ-6A DEB, 55872 is space debris in SSO originally from a launch on Fri, 11 Nov 2022 UTC launched from the Taiyaun Space Center, China (TSC). Debris objects in space refer to the collection of defunct objects orbiting the Earth. Examples of debris include non-operational satellites, rocket bodies, and fragments generated from explosions, collisions, or faulty payload assembly.

Loading next visibility...
Identifier
55872, 2022-151ZU
Orbit
SSO
Country
Flag of CNCN / PRC
Related business
Manufacturer
SAST
Mission
Spacecraft
Bus & Motor
Unknown
Mass
Unknown
Launch date (UTC)
2022-11-11 (4 years ago)
Launch vehicle
Unknown
Launch site
Taiyaun Space Center, China (TSC)
Object type
Payload
Rocket body
Debris
Shape & HBR
Unknown shape, 0.1 m
Radar Cross Section
Small (<0.1 m²)

Expand to show TLE details & history
Last TLE update: 2 days ago

TLE from 2 days ago
0 CZ-6A DEB
1 55872U 22151ZU  26170.96886470  .00000130  00000-0  95293-4 0  9998
2 55872  98.8338 172.8319 0039066 305.6960  54.0578 14.11370469173435
Epoch: 2026-06-19T23:15Z
TLE epoch observation values (Epoch: 2026-06-19T23:15:09.910Z)
Latitude
-0.00002°
Longitude
-84.14961°
Altitude
841.069 km
Speed
7.441 km/s
True Right ascension
11h 31m 19s
True Declination
0° 00' 00"
Sunlit
Object was in daylight at epoch
Visualization orbit readout
Latitude
Unknown
Longitude
Unknown
Altitude
Unknown
Speed
Unknown
Apparent Right ascension
Unknown
Apparent Declination
Unknown
Sunlit
N/A
Visualization observer readout
Local Sidereal Time
21:34:58
Azimuth
Unknown
Elevation
Unknown
Doppler factor
Unknown
Orbital elements
Apogee altitude
880.107 km
Perigee altitude
823.617 km
Semi-major axis
7,229.999 km
Eccentricity
0.00391
Inclination
98.8338°
RAAN
172.8319°
Arg. of periapsis
305.696°
True anomaly
54.42127°
Mean anomaly
54.0578°
Eccentric anomaly
54.23943°
Mean motion
3.5305 °/min
Orbital period
101.97 mins
BSTAR
0.000095293
Loading maneuver chart data...
Computing Atmospheric mass density...
Loading historical data...
Loading historical data...
Loading historical data...
Loading historical data...
Loading historical data...
Loading historical data...
Loading historical data...

Documentation

Showing up to 5 results
|